This demonstration page uses our WeatherBlox Daily Observations layout. Learn more.

Left ArrowRight Arrow

41.12389, -100.76542

Hourly Observations for September 13, 2016

Temp ( °F °C ) Dew Point ( °F °C ) Humidity (%) Winds ( mph kmh ) Pressure ( in mb ) Visibility ( mi km ) Precip ( " mm )
12:53 am 00:53 Mostly Cloudy 54 12.2 45 7.2 72 72 N 6 9 30.11 1020 10 16 0.00 0.00
1:53 am 01:53 Mostly Cloudy 53 11.7 43 6.1 69 69 N 12 19 30.10 1019 10 16 0.00 0.00
2:53 am 02:53 Cloudy 53 11.7 43 6.1 69 69 N 8 13 30.14 1021 10 16 0.00 0.00
3:53 am 03:53 Cloudy 53 11.7 43 6.1 69 69 N 8 13 30.17 1022 10 16 0.00 0.00
4:53 am 04:53 Cloudy 52 11.1 43 6.1 72 72 N 8 13 30.20 1023 10 16 0.00 0.00
5:53 am 05:53 Cloudy 52 11.1 43 6.1 72 72 N 10 17 30.20 1023 10 16 0.00 0.00
6:53 am 06:53 Cloudy 50 10 43 6.1 77 77 N 10 17 30.18 1022 10 16 0.00 0.00
7:53 am 07:53 Partly Cloudy 50 10 43 6.1 77 77 NNE 10 17 30.17 1022 10 16 0.00 0.00
8:53 am 08:53 Mostly Cloudy 52 11.1 43 6.1 72 72 NNE 8 13 30.23 1024 10 16 0.00 0.00
9:53 am 09:53 Cloudy 53 11.7 44 6.7 72 72 NE 8 13 30.26 1025 10 16 0.00 0.00
10:53 am 10:53 Cloudy 54 12.2 44 6.7 69 69 NE 10 17 30.26 1025 10 16 0.00 0.00
11:53 am 11:53 Cloudy 57 13.9 44 6.7 62 62 NE 9 15 30.27 1025 10 16 0.00 0.00
12:53 pm 12:53 Cloudy 60 15.6 43 6.1 53 53 NE 9 15 30.25 1024 10 16 0.00 0.00
1:53 pm 13:53 Cloudy 62 16.7 43 6.1 50 50 NE 8 13 30.21 1023 10 16 0.00 0.00
2:53 pm 14:53 Cloudy 62 16.7 42 5.6 48 48 ENE 8 13 30.21 1023 10 16 0.00 0.00
3:53 pm 15:53 Cloudy 62 16.7 43 6.1 50 50 E 8 13 30.19 1023 10 16 0.00 0.00
4:53 pm 16:53 Cloudy 62 16.7 43 6.1 50 50 ENE 8 13 30.19 1023 10 16 0.00 0.00
5:53 pm 17:53 Cloudy 61 16.1 43 6.1 52 52 E 13 20 30.20 1023 10 16 0.00 0.00
6:53 pm 18:53 Mostly Cloudy 62 16.7 44 6.7 52 52 ENE 10 17 30.20 1023 10 16 0.00 0.00
7:53 pm 19:53 Sunny 55 12.8 44 6.7 67 67 E 6 9 30.22 1024 10 16 0.00 0.00
8:53 pm 20:53 Cloudy 54 12.2 46 7.8 75 75 ESE 3 6 30.25 1024 10 16 0.00 0.00
9:53 pm 21:53 Cloudy 55 12.8 47 8.3 74 74 ESE 3 6 30.26 1025 10 16 0.00 0.00
10:53 pm 22:53 Cloudy 53 11.7 48 8.9 83 83 ESE 5 7 30.28 1025 10 16 0.00 0.00
11:53 pm 23:53 Partly Cloudy 51 10.6 46 7.8 83 83 E 6 9 30.29 1026 10 16 0.00 0.00

Powered by AerisWeather